Location: ?astrovice
(49.6513°N, 14.9287°E)
Time: 16:57:07
(UTC+00:00)

SL-16 R/B - Pass Details

Date: 09 April 2020
Orbit: 842 x 846 km, 71.0° (Epoch: 25 May)

Event Time Altitude Azimuth Distance (km) Brightness Sun altitude
Rises 23:13:14 0° 324° (NW) 3,416 6.0 -32.3°
Reaches altitude 10° 23:15:57 10° 314° (NW) 2,476 5.0 -32.2°
Enters shadow 23:18:36 23° 292° (WNW) 1,740 3.9 -32.2°
